When you browse on this site, cookies collect data to enhance your experience and personalize the content and advertising you see.
Visit our Privacy Policy to learn more. By continuing to use the site, you agree to this use of cookies and data.
  • In Latvia
  • List of Countries
  • For 7 days
  • Water Temperature
  • Satellite Maps
  • Weather Map
  • Weather Widgets
  • user-avatar
    Login

    Hourly Weather Licata

    Today, 19 January, Saturday

    Time Temperature Precipitation Wind Pressure Humidity
    00:00 +9°C° 0 mm 2 mps 759 mmHg 78%
    01:00 +9°C° 0 mm 2 mps 759 mmHg 78%
    02:00 +9°C° 0 mm 2 mps 759 mmHg 77%
    03:00 +8°C° 0 mm 2 mps 759 mmHg 76%
    04:00 +8°C° 0 mm 2 mps 759 mmHg 76%
    05:00 +8°C° 0 mm 2 mps 759 mmHg 76%
    06:00 +8°C° 0 mm 2 mps 759 mmHg 76%
    07:00 +8°C° 0 mm 2 mps 759 mmHg 76%
    08:00 +10°C° 0 mm 1 mps 759 mmHg 73%
    09:00 +12°C° 0 mm 1 mps 759 mmHg 69%
    10:00 +13°C° 0 mm 1 mps 759 mmHg 65%
    11:00 +14°C° 0 mm 1 mps 759 mmHg 64%
    12:00 +15°C° 0 mm 2 mps 759 mmHg 63%
    13:00 +16°C° 0 mm 2 mps 759 mmHg 63%
    14:00 +16°C° 0 mm 2 mps 759 mmHg 64%
    15:00 +16°C° 0 mm 3 mps 758 mmHg 65%
    16:00 +14°C° 0 mm 3 mps 758 mmHg 67%
    17:00 +13°C° 0.1 mm 3 mps 758 mmHg 72%
    18:00 +13°C° 0.1 mm 2 mps 758 mmHg 78%
    19:00 +11°C° 0.1 mm 1 mps 759 mmHg 84%
    20:00 +11°C° 0 mm 1 mps 759 mmHg 85%
    21:00 +11°C° 0 mm 1 mps 759 mmHg 86%
    22:00 +11°C° 0 mm 1 mps 759 mmHg 87%
    23:00 +10°C° 0 mm 1 mps 759 mmHg 88%

    Tomorrow, 20 January, Sunday

    Time Temperature Precipitation Wind Pressure Humidity
    00:00 +10°C° 0 mm 1 mps 759 mmHg 88%
    01:00 +10°C° 0 mm 1 mps 759 mmHg 89%
    02:00 +10°C° 0.1 mm 1 mps 759 mmHg 90%
    03:00 +10°C° 0.1 mm 1 mps 758 mmHg 90%
    04:00 +10°C° 0.1 mm 1 mps 758 mmHg 91%
    05:00 +10°C° 0 mm 1 mps 758 mmHg 91%
    06:00 +10°C° 0 mm 1 mps 758 mmHg 92%
    07:00 +10°C° 0 mm 1 mps 758 mmHg 92%
    08:00 +11°C° 0 mm 1 mps 759 mmHg 86%
    09:00 +12°C° 0 mm 1 mps 759 mmHg 80%
    10:00 +12°C° 0 mm 0 mps 759 mmHg 73%
    11:00 +14°C° 0 mm 1 mps 759 mmHg 69%
    12:00 +15°C° 0 mm 2 mps 758 mmHg 64%
    13:00 +15°C° 0 mm 2 mps 758 mmHg 60%
    14:00 +15°C° 0 mm 2 mps 758 mmHg 62%
    15:00 +15°C° 0 mm 2 mps 758 mmHg 65%
    16:00 +13°C° 0 mm 3 mps 758 mmHg 68%
    17:00 +13°C° 0 mm 2 mps 758 mmHg 74%
    18:00 +12°C° 0 mm 1 mps 758 mmHg 81%
    19:00 +9°C° 0 mm 0 mps 759 mmHg 87%
    20:00 +10°C° 0 mm 1 mps 759 mmHg 88%
    21:00 +10°C° 0 mm 1 mps 759 mmHg 89%
    22:00 +10°C° 0 mm 1 mps 759 mmHg 89%
    23:00 +10°C° 0 mm 1 mps 759 mmHg 90%

    Day after tomorrow, 21 January, Monday

    Time Temperature Precipitation Wind Pressure Humidity
    00:00 +9°C° 0 mm 2 mps 759 mmHg 90%
    01:00 +8°C° 0 mm 2 mps 758 mmHg 90%
    02:00 +8°C° 0 mm 3 mps 758 mmHg 91%
    03:00 +8°C° 0 mm 3 mps 758 mmHg 91%
    04:00 +7°C° 0 mm 4 mps 757 mmHg 91%
    05:00 +7°C° 0 mm 4 mps 757 mmHg 89%
    06:00 +7°C° 0 mm 4 mps 757 mmHg 88%
    07:00 +8°C° 0 mm 4 mps 757 mmHg 86%
    08:00 +10°C° 0.1 mm 4 mps 757 mmHg 84%
    09:00 +11°C° 0.1 mm 4 mps 757 mmHg 81%
    10:00 +12°C° 0.1 mm 5 mps 757 mmHg 79%
    11:00 +12°C° 0.9 mm 5 mps 756 mmHg 78%
    12:00 +12°C° 0.9 mm 5 mps 756 mmHg 78%
    13:00 +13°C° 0.9 mm 5 mps 756 mmHg 78%
    14:00 +13°C° 0.6 mm 5 mps 755 mmHg 81%
    15:00 +12°C° 0.6 mm 5 mps 755 mmHg 83%
    16:00 +12°C° 0.6 mm 5 mps 755 mmHg 86%
    17:00 +12°C° 1.6 mm 5 mps 755 mmHg 87%
    18:00 +11°C° 1.6 mm 4 mps 755 mmHg 88%
    19:00 +11°C° 1.6 mm 4 mps 755 mmHg 90%
    20:00 +10°C° 0.3 mm 3 mps 755 mmHg 91%
    21:00 +10°C° 0.3 mm 3 mps 755 mmHg 92%
    22:00 +9°C° 0.3 mm 2 mps 755 mmHg 93%
    23:00 +9°C° 0.1 mm 2 mps 755 mmHg 93%

    22 January, Tuesday

    Time Temperature Precipitation Wind Pressure Humidity
    00:00 +9°C° 0.1 mm 2 mps 755 mmHg 92%
    01:00 +10°C° 0.1 mm 2 mps 755 mmHg 92%
    02:00 +9°C° 0 mm 2 mps 754 mmHg 93%
    03:00 +9°C° 0 mm 2 mps 754 mmHg 93%
    04:00 +9°C° 0 mm 2 mps 754 mmHg 94%
    05:00 +9°C° 0 mm 2 mps 754 mmHg 93%
    06:00 +9°C° 0 mm 3 mps 754 mmHg 92%
    07:00 +10°C° 0 mm 4 mps 755 mmHg 91%
    08:00 +11°C° 0 mm 4 mps 755 mmHg 84%
    09:00 +12°C° 0 mm 5 mps 755 mmHg 78%
    10:00 +13°C° 0 mm 5 mps 756 mmHg 71%
    11:00 +13°C° 0 mm 6 mps 755 mmHg 68%
    12:00 +14°C° 0 mm 7 mps 755 mmHg 64%
    13:00 +15°C° 0 mm 8 mps 755 mmHg 60%
    14:00 +13°C° 0 mm 8 mps 755 mmHg 60%
    15:00 +13°C° 0 mm 9 mps 755 mmHg 60%
    16:00 +12°C° 0 mm 9 mps 755 mmHg 59%
    17:00 +11°C° 0 mm 9 mps 755 mmHg 64%
    18:00 +10°C° 0 mm 8 mps 755 mmHg 69%
    19:00 +9°C° 0 mm 8 mps 755 mmHg 74%
    20:00 +8°C° 0 mm 7 mps 755 mmHg 76%
    21:00 +8°C° 0 mm 7 mps 755 mmHg 77%
    22:00 +6°C° 0 mm 7 mps 755 mmHg 79%
    23:00 +6°C° 0 mm 7 mps 755 mmHg 80%

    23 January, Wednesday

    Time Temperature Precipitation Wind Pressure Humidity
    00:00 +6°C° 0 mm 7 mps 755 mmHg 80%
    01:00 +6°C° 0 mm 7 mps 754 mmHg 81%
    02:00 +5°C° 0 mm 6 mps 754 mmHg 78%
    03:00 +5°C° 0 mm 6 mps 753 mmHg 76%
    04:00 +5°C° 0 mm 6 mps 753 mmHg 74%
    05:00 +5°C° 0.2 mm 6 mps 753 mmHg 77%
    06:00 +5°C° 0.2 mm 6 mps 752 mmHg 81%
    07:00 +5°C° 0.2 mm 6 mps 752 mmHg 85%
    08:00 +8°C° 0.3 mm 7 mps 752 mmHg 77%
    09:00 +10°C° 0.3 mm 8 mps 751 mmHg 68%
    10:00 +11°C° 0.3 mm 10 mps 751 mmHg 59%
    11:00 +11°C° 0.7 mm 11 mps 750 mmHg 61%
    12:00 +11°C° 0.7 mm 11 mps 749 mmHg 63%
    13:00 +10°C° 0.7 mm 12 mps 748 mmHg 65%
    14:00 +10°C° 1.2 mm 12 mps 747 mmHg 68%
    15:00 +9°C° 1.2 mm 11 mps 747 mmHg 71%
    16:00 +9°C° 1.2 mm 10 mps 746 mmHg 74%
    17:00 +8°C° 1.2 mm 10 mps 746 mmHg 77%
    18:00 +8°C° 1.2 mm 10 mps 746 mmHg 79%
    19:00 +8°C° 1.2 mm 9 mps 745 mmHg 82%
    20:00 +8°C° 0.2 mm 9 mps 745 mmHg 81%
    21:00 +7°C° 0.2 mm 9 mps 745 mmHg 80%
    22:00 +7°C° 0.2 mm 9 mps 745 mmHg 79%
    23:00 +7°C° 0.1 mm 9 mps 744 mmHg 79%

    24 January, Thursday

    Time Temperature Precipitation Wind Pressure Humidity
    00:00 +7°C° 0.1 mm 9 mps 743 mmHg 78%
    01:00 +8°C° 0.1 mm 10 mps 742 mmHg 77%
    02:00 +8°C° 2.4 mm 12 mps 741 mmHg 80%
    03:00 +8°C° 2.4 mm 14 mps 741 mmHg 83%
    04:00 +7°C° 2.4 mm 16 mps 740 mmHg 85%
    05:00 +8°C° 0.8 mm 12 mps 740 mmHg 84%
    06:00 +7°C° 0.8 mm 8 mps 740 mmHg 83%
    07:00 +8°C° 0.8 mm 4 mps 740 mmHg 82%
    08:00 +8°C° 0.8 mm 5 mps 740 mmHg 84%
    09:00 +8°C° 0.8 mm 5 mps 740 mmHg 86%
    10:00 +8°C° 0.8 mm 6 mps 740 mmHg 88%
    11:00 +8°C° 1.5 mm 7 mps 740 mmHg 85%
    12:00 +6°C° 1.5 mm 9 mps 740 mmHg 82%
    13:00 +5°C° 1.5 mm 10 mps 740 mmHg 79%
    14:00 +6°C° 0.1 mm 10 mps 741 mmHg 74%
    15:00 +6°C° 0.1 mm 11 mps 741 mmHg 70%
    16:00 +7°C° 0.1 mm 11 mps 741 mmHg 65%
    17:00 +5°C° 0.4 mm 12 mps 742 mmHg 66%
    18:00 +5°C° 0.4 mm 12 mps 742 mmHg 67%
    19:00 +4°C° 0.4 mm 12 mps 743 mmHg 68%
    20:00 +4°C° 0.4 mm 12 mps 743 mmHg 69%
    21:00 +4°C° 0.4 mm 12 mps 743 mmHg 71%
    22:00 +4°C° 0.4 mm 12 mps 744 mmHg 72%
    23:00 +4°C° 0.9 mm 12 mps 744 mmHg 72%
    Show more